FIN4MZ EFHK-EFOU

Flight info

Callsign FIN4MZ
Flight time 0h 58m
Altitude 38000
Route TEVRU Y75 SUVIB
Aircraft A319/M-SDE3FGHIRWY/LB1

Departure

Time 2026-04-23 19:03
Airport Helsinki Vantaa Airport (EFHK)

Arrival

Time 2026-04-23 20:02
Airport Oulu Airport (EFOU)
Time Latitude Longitude Altitude Speed Heading
2026-04-23 18:27 60.31909 24.96617 162 ft 0 kts 136°
2026-04-23 18:52 60.31919 24.96599 161 ft 2 kts 142°
2026-04-23 18:52 60.31932 24.96578 161 ft 2 kts 146°
2026-04-23 18:52 60.31946 24.96562 161 ft 2 kts 165°
2026-04-23 18:52 60.31962 24.96560 161 ft 2 kts 212°
2026-04-23 18:53 60.31971 24.96574 161 ft 1 kts 231°
2026-04-23 18:53 60.31972 24.96575 161 ft 0 kts 231°
2026-04-23 18:55 60.31970 24.96571 161 ft 2 kts 231°
2026-04-23 18:55 60.31952 24.96526 161 ft 5 kts 231°
2026-04-23 18:55 60.31926 24.96465 161 ft 6 kts 229°
2026-04-23 18:56 60.31903 24.96420 161 ft 7 kts 219°
2026-04-23 18:56 60.31863 24.96321 161 ft 0 kts 242°
2026-04-23 18:56 60.31863 24.96318 161 ft 1 kts 242°
2026-04-23 18:56 60.31853 24.96266 161 ft 7 kts 258°
2026-04-23 18:57 60.31868 24.96144 161 ft 11 kts 304°
2026-04-23 18:57 60.31930 24.96001 161 ft 15 kts 277°
2026-04-23 18:57 60.31863 24.95816 161 ft 19 kts 227°
2026-04-23 18:57 60.31762 24.95593 161 ft 24 kts 227°
2026-04-23 18:58 60.31650 24.95345 162 ft 24 kts 227°
2026-04-23 18:58 60.31535 24.95090 162 ft 25 kts 227°
2026-04-23 18:58 60.31417 24.94829 161 ft 25 kts 227°
2026-04-23 18:58 60.31296 24.94566 161 ft 26 kts 227°
2026-04-23 18:59 60.31174 24.94301 162 ft 26 kts 227°
2026-04-23 18:59 60.31055 24.94032 161 ft 23 kts 228°
2026-04-23 18:59 60.31044 24.93843 161 ft 0 kts 297°
2026-04-23 19:00 60.31045 24.93843 161 ft 0 kts 297°
2026-04-23 19:00 60.31052 24.93814 161 ft 5 kts 300°
2026-04-23 19:01 60.31091 24.93742 161 ft 11 kts 325°
2026-04-23 19:01 60.31179 24.93747 161 ft 16 kts 37°
2026-04-23 19:01 60.31197 24.93784 162 ft 0 kts 47°
2026-04-23 19:02 60.31286 24.93979 163 ft 51 kts 47°
2026-04-23 19:02 60.31533 24.94526 161 ft 104 kts 47°
2026-04-23 19:02 60.32171 24.95930 178 ft 163 kts 47°
2026-04-23 19:03 60.32958 24.97693 655 ft 176 kts 46°
2026-04-23 19:03 60.33774 24.99511 1506 ft 175 kts 44°
2026-04-23 19:03 60.34643 25.01420 2011 ft 195 kts 44°
2026-04-23 19:03 60.35626 25.03567 2472 ft 221 kts 44°
2026-04-23 19:04 60.36724 25.05966 3116 ft 242 kts 44°
2026-04-23 19:04 60.37884 25.08519 4085 ft 250 kts 44°
2026-04-23 19:04 60.39095 25.11084 5143 ft 253 kts 37°
2026-04-23 19:04 60.40658 25.12677 6124 ft 255 kts 10°
2026-04-23 19:05 60.42428 25.12793 7115 ft 256 kts 351°
2026-04-23 19:05 60.44133 25.11739 8208 ft 256 kts 340°
2026-04-23 19:05 60.45799 25.10488 9355 ft 255 kts 340°
2026-04-23 19:05 60.47474 25.09218 10212 ft 264 kts 340°
2026-04-23 19:06 60.49271 25.07848 10561 ft 287 kts 340°
2026-04-23 19:06 60.51183 25.06383 11217 ft 297 kts 340°
2026-04-23 19:06 60.53128 25.04892 12091 ft 300 kts 340°
2026-04-23 19:06 60.55064 25.03408 12987 ft 302 kts 340°
2026-04-23 19:07 60.57039 25.01896 13868 ft 304 kts 340°
2026-04-23 19:07 60.59021 25.00374 14654 ft 305 kts 340°
2026-04-23 19:07 60.61008 24.98844 15454 ft 306 kts 340°
2026-04-23 19:07 60.63006 24.97303 16260 ft 307 kts 340°
2026-04-23 19:08 60.65014 24.95755 17053 ft 309 kts 340°
2026-04-23 19:08 60.67028 24.94202 17830 ft 310 kts 340°
2026-04-23 19:08 60.69056 24.92638 18537 ft 312 kts 340°
2026-04-23 19:08 60.71091 24.91061 19201 ft 313 kts 340°
2026-04-23 19:09 60.73110 24.89492 19867 ft 315 kts 341°
2026-04-23 19:09 60.75163 24.87891 20535 ft 317 kts 341°
2026-04-23 19:09 60.77227 24.86280 21195 ft 318 kts 341°
2026-04-23 19:09 60.79301 24.84661 21854 ft 320 kts 341°
2026-04-23 19:10 60.81426 24.83307 22485 ft 321 kts 349°
2026-04-23 19:10 60.83654 24.82905 23142 ft 323 kts 359°
2026-04-23 19:10 60.85903 24.83342 23718 ft 325 kts
2026-04-23 19:10 60.88153 24.83878 24236 ft 326 kts
2026-04-23 19:11 60.90412 24.84416 24747 ft 327 kts
2026-04-23 19:11 60.92676 24.84956 25246 ft 328 kts
2026-04-23 19:11 60.94949 24.85499 25743 ft 329 kts
2026-04-23 19:11 60.97227 24.86047 26167 ft 330 kts
2026-04-23 19:12 60.99520 24.86597 26606 ft 333 kts
2026-04-23 19:12 61.01826 24.87151 27063 ft 334 kts
2026-04-23 19:12 61.04146 24.87704 27532 ft 336 kts
2026-04-23 19:12 61.06472 24.88255 27801 ft 337 kts
2026-04-23 19:13 61.08766 24.88798 27845 ft 336 kts
2026-04-23 19:13 61.11084 24.89346 27845 ft 335 kts
2026-04-23 19:13 61.13403 24.89895 27846 ft 335 kts
2026-04-23 19:13 61.15734 24.90452 28131 ft 337 kts
2026-04-23 19:14 61.18069 24.91017 28620 ft 338 kts
2026-04-23 19:14 61.20412 24.91585 29071 ft 340 kts
2026-04-23 19:14 61.22768 24.92157 29501 ft 341 kts
2026-04-23 19:14 61.25128 24.92724 29908 ft 342 kts
2026-04-23 19:15 61.27502 24.93291 30238 ft 344 kts
2026-04-23 19:15 61.29891 24.93865 30546 ft 347 kts
2026-04-23 19:15 61.32294 24.94448 30838 ft 349 kts
2026-04-23 19:15 61.34685 24.95029 31117 ft 352 kts
2026-04-23 19:16 61.37120 24.95620 31479 ft 352 kts
2026-04-23 19:16 61.39550 24.96214 31890 ft 351 kts
2026-04-23 19:16 61.41974 24.96811 32295 ft 351 kts
2026-04-23 19:17 61.46821 24.97995 33163 ft 350 kts
2026-04-23 19:17 61.49236 24.98585 33586 ft 349 kts
2026-04-23 19:17 61.51651 24.99177 33963 ft 349 kts
2026-04-23 19:17 61.54069 24.99774 34257 ft 351 kts
2026-04-23 19:18 61.56498 25.00374 34504 ft 353 kts
2026-04-23 19:18 61.58945 25.00978 34743 ft 355 kts
2026-04-23 19:18 61.61406 25.01540 34978 ft 356 kts 360°
2026-04-23 19:18 61.63884 25.01664 35198 ft 357 kts 358°
2026-04-23 19:19 61.68884 25.01850 35632 ft 361 kts 358°
2026-04-23 19:19 61.71404 25.01941 35843 ft 363 kts 358°
2026-04-23 19:20 61.76485 25.02130 36311 ft 367 kts 358°
2026-04-23 19:20 61.79045 25.02229 36492 ft 369 kts 359°
2026-04-23 19:20 61.81619 25.02325 36643 ft 371 kts 359°
2026-04-23 19:20 61.84204 25.02419 36842 ft 372 kts 359°
2026-04-23 19:21 61.86801 25.02516 37047 ft 374 kts 359°
2026-04-23 19:21 61.92024 25.02717 37464 ft 377 kts 359°
2026-04-23 19:21 61.94652 25.02817 37661 ft 379 kts 359°
2026-04-23 19:22 61.97292 25.02918 37807 ft 380 kts 359°
2026-04-23 19:22 62.05209 25.03232 37832 ft 381 kts 359°
2026-04-23 19:23 62.10550 25.03440 37839 ft 381 kts 359°
2026-04-23 19:24 62.18471 25.03731 37828 ft 381 kts 359°
2026-04-23 19:24 62.26426 25.04029 37831 ft 381 kts 359°
2026-04-23 19:25 62.37036 25.04439 37682 ft 380 kts 359°
2026-04-23 19:26 62.42300 25.04647 36515 ft 375 kts 358°
2026-04-23 19:26 62.44887 25.04748 35996 ft 371 kts 358°
2026-04-23 19:27 62.49989 25.04953 34966 ft 362 kts 358°
2026-04-23 19:27 62.57401 25.05233 33793 ft 349 kts 357°
2026-04-23 19:28 62.67117 25.05613 33830 ft 349 kts 357°
2026-04-23 19:29 62.74402 25.05887 33873 ft 349 kts 356°
2026-04-23 19:30 62.81695 25.06170 33822 ft 349 kts 356°
2026-04-23 19:30 62.86548 25.06372 33396 ft 347 kts 356°
2026-04-23 19:31 62.88961 25.06475 32545 ft 347 kts 356°
2026-04-23 19:31 62.91376 25.06570 31747 ft 347 kts 356°
2026-04-23 19:31 62.93768 25.06664 31195 ft 341 kts 356°
2026-04-23 19:31 62.96087 25.06759 30746 ft 335 kts 356°
2026-04-23 19:32 62.98415 25.06850 30414 ft 334 kts 356°
2026-04-23 19:32 63.00726 25.06939 30020 ft 330 kts 356°
2026-04-23 19:32 63.03015 25.07029 29589 ft 327 kts 356°
2026-04-23 19:32 63.05278 25.07117 29135 ft 324 kts 356°
2026-04-23 19:33 63.07532 25.07208 28679 ft 322 kts 356°
2026-04-23 19:33 63.09765 25.07307 28275 ft 318 kts 356°
2026-04-23 19:33 63.14156 25.07499 27364 ft 314 kts 356°
2026-04-23 19:34 63.16309 25.07589 26913 ft 312 kts 356°
2026-04-23 19:34 63.18474 25.07678 26473 ft 310 kts 356°
2026-04-23 19:34 63.22770 25.07855 25611 ft 307 kts 356°
2026-04-23 19:35 63.24901 25.07945 25195 ft 306 kts 356°
2026-04-23 19:35 63.27024 25.08033 24782 ft 304 kts 356°
2026-04-23 19:35 63.29141 25.08119 24319 ft 303 kts 356°
2026-04-23 19:35 63.31254 25.08197 23918 ft 304 kts 356°
2026-04-23 19:36 63.33367 25.08275 23523 ft 303 kts 356°
2026-04-23 19:36 63.35473 25.08357 23078 ft 302 kts 356°
2026-04-23 19:36 63.37574 25.08441 22603 ft 301 kts 356°
2026-04-23 19:36 63.39641 25.08528 22145 ft 301 kts 356°
2026-04-23 19:37 63.41733 25.08618 21755 ft 300 kts 356°
2026-04-23 19:37 63.43813 25.08707 21310 ft 298 kts 356°
2026-04-23 19:37 63.45886 25.08795 20861 ft 298 kts 357°
2026-04-23 19:37 63.47960 25.08879 20420 ft 298 kts 357°
2026-04-23 19:38 63.50035 25.08960 19993 ft 298 kts 357°
2026-04-23 19:38 63.52111 25.09041 19569 ft 298 kts 357°
2026-04-23 19:38 63.54188 25.09121 19158 ft 299 kts 357°
2026-04-23 19:38 63.56271 25.09202 18732 ft 299 kts 358°
2026-04-23 19:39 63.58355 25.09291 18329 ft 300 kts 358°
2026-04-23 19:39 63.60443 25.09385 17902 ft 300 kts 358°
2026-04-23 19:39 63.62533 25.09474 17439 ft 300 kts 358°
2026-04-23 19:39 63.64615 25.09556 16975 ft 298 kts 358°
2026-04-23 19:40 63.66687 25.09632 16522 ft 297 kts 358°
2026-04-23 19:40 63.68752 25.09708 16070 ft 296 kts 358°
2026-04-23 19:40 63.70782 25.09790 15741 ft 295 kts 358°
2026-04-23 19:40 63.72834 25.09877 15430 ft 295 kts 358°
2026-04-23 19:41 63.74884 25.09963 15162 ft 294 kts 357°
2026-04-23 19:41 63.76930 25.10048 14860 ft 294 kts 357°
2026-04-23 19:41 63.78972 25.10132 14563 ft 293 kts 357°
2026-04-23 19:41 63.81013 25.10216 14263 ft 293 kts 357°
2026-04-23 19:42 63.83052 25.10305 13966 ft 292 kts 357°
2026-04-23 19:42 63.85084 25.10396 13664 ft 292 kts 357°
2026-04-23 19:42 63.87116 25.10490 13355 ft 291 kts 357°
2026-04-23 19:42 63.89140 25.10583 13025 ft 291 kts 358°
2026-04-23 19:43 63.91164 25.10673 12705 ft 290 kts 358°
2026-04-23 19:43 63.93183 25.10757 12386 ft 290 kts 358°
2026-04-23 19:43 63.95197 25.10841 12058 ft 289 kts 358°
2026-04-23 19:43 63.97180 25.10925 11745 ft 289 kts 358°
2026-04-23 19:44 63.99191 25.11008 11427 ft 288 kts 358°
2026-04-23 19:44 64.01203 25.11085 11118 ft 288 kts 358°
2026-04-23 19:44 64.03209 25.11167 10810 ft 288 kts 359°
2026-04-23 19:44 64.05191 25.11901 10475 ft 291 kts 12°
2026-04-23 19:45 64.07139 25.13196 10174 ft 291 kts 12°
2026-04-23 19:45 64.09081 25.14485 9900 ft 291 kts 12°
2026-04-23 19:45 64.11012 25.15771 9775 ft 283 kts 12°
2026-04-23 19:45 64.12841 25.17005 9785 ft 265 kts 12°
2026-04-23 19:46 64.14579 25.18184 9790 ft 258 kts 12°
2026-04-23 19:46 64.16271 25.19325 9787 ft 256 kts 12°
2026-04-23 19:46 64.17982 25.20480 9793 ft 256 kts 12°
2026-04-23 19:46 64.19691 25.21632 9788 ft 256 kts 12°
2026-04-23 19:47 64.20847 25.22411 9785 ft 256 kts 12°
2026-04-23 19:47 64.23111 25.23939 9782 ft 256 kts 12°
2026-04-23 19:47 64.24823 25.25098 9788 ft 256 kts 12°
2026-04-23 19:47 64.26529 25.26252 9782 ft 256 kts 12°
2026-04-23 19:48 64.28242 25.27411 9780 ft 256 kts 12°
2026-04-23 19:48 64.29953 25.28575 9782 ft 256 kts 12°
2026-04-23 19:48 64.31662 25.29738 9784 ft 256 kts 12°
2026-04-23 19:48 64.33374 25.30900 9777 ft 256 kts 12°
2026-04-23 19:49 64.35087 25.32068 9776 ft 256 kts 12°
2026-04-23 19:49 64.36795 25.33236 9782 ft 256 kts 12°
2026-04-23 19:49 64.38497 25.34402 9668 ft 254 kts 12°
2026-04-23 19:49 64.40199 25.35574 9449 ft 258 kts 12°
2026-04-23 19:50 64.41917 25.36760 8987 ft 257 kts 12°
2026-04-23 19:50 64.43625 25.37941 8562 ft 256 kts 13°
2026-04-23 19:50 64.45329 25.39123 8118 ft 255 kts 13°
2026-04-23 19:50 64.47002 25.40284 7711 ft 254 kts 13°
2026-04-23 19:51 64.48691 25.41454 7289 ft 253 kts 13°
2026-04-23 19:51 64.50373 25.42619 6889 ft 252 kts 13°
2026-04-23 19:51 64.52052 25.43785 6504 ft 251 kts 14°
2026-04-23 19:51 64.53719 25.44943 6123 ft 249 kts 14°
2026-04-23 19:52 64.54814 25.45703 5856 ft 247 kts 14°
2026-04-23 19:52 64.57008 25.47225 5314 ft 243 kts 14°
2026-04-23 19:52 64.58615 25.48341 4919 ft 239 kts 14°
2026-04-23 19:52 64.60175 25.49424 4558 ft 235 kts 13°
2026-04-23 19:53 64.61740 25.50513 4266 ft 233 kts 13°
2026-04-23 19:53 64.63292 25.51593 3974 ft 233 kts 13°
2026-04-23 19:53 64.64844 25.52676 3682 ft 232 kts 13°
2026-04-23 19:53 64.65871 25.53396 3491 ft 231 kts 13°
2026-04-23 19:54 64.67410 25.54476 3206 ft 230 kts 13°
2026-04-23 19:54 64.68940 25.55552 2924 ft 229 kts 14°
2026-04-23 19:54 64.70462 25.56626 2676 ft 228 kts 13°
2026-04-23 19:54 64.71981 25.57695 2520 ft 228 kts 13°
2026-04-23 19:55 64.73988 25.59110 2356 ft 228 kts 13°
2026-04-23 19:55 64.75013 25.59834 2306 ft 227 kts 13°
2026-04-23 19:55 64.76521 25.60959 2305 ft 227 kts 18°
2026-04-23 19:55 64.77853 25.62643 2308 ft 209 kts 27°
2026-04-23 19:56 64.79059 25.64385 2305 ft 195 kts 26°
2026-04-23 19:56 64.80172 25.65982 2316 ft 185 kts 26°
2026-04-23 19:56 64.81263 25.67533 2316 ft 182 kts 26°
2026-04-23 19:56 64.82382 25.68878 2302 ft 176 kts 11°
2026-04-23 19:57 64.83554 25.68940 2305 ft 166 kts 346°
2026-04-23 19:57 64.84568 25.67761 2305 ft 164 kts 322°
2026-04-23 19:57 64.85257 25.65660 2306 ft 166 kts 304°
2026-04-23 19:57 64.85852 25.63323 2207 ft 163 kts 305°
2026-04-23 19:58 64.86430 25.61078 1946 ft 161 kts 304°
2026-04-23 19:58 64.86986 25.58918 1905 ft 149 kts 305°
2026-04-23 19:58 64.87518 25.56859 1913 ft 145 kts 305°
2026-04-23 19:58 64.88004 25.54970 1903 ft 128 kts 306°
2026-04-23 19:59 64.88452 25.53230 1852 ft 123 kts 306°
2026-04-23 19:59 64.88886 25.51539 1632 ft 119 kts 306°
2026-04-23 19:59 64.89312 25.49877 1433 ft 118 kts 306°
2026-04-23 19:59 64.89739 25.48216 1238 ft 119 kts 304°
2026-04-23 20:00 64.90166 25.46559 1045 ft 120 kts 303°
2026-04-23 20:00 64.90606 25.44867 846 ft 122 kts 302°
2026-04-23 20:00 64.91072 25.43189 664 ft 122 kts 302°
2026-04-23 20:00 64.91516 25.41485 518 ft 124 kts 297°
2026-04-23 20:01 64.91932 25.39684 278 ft 124 kts 300°
2026-04-23 20:01 64.92384 25.37940 135 ft 125 kts 299°
2026-04-23 20:01 64.92824 25.36236 54 ft 110 kts 299°
2026-04-23 20:01 64.93131 25.34991 53 ft 73 kts 301°
2026-04-23 20:02 64.93321 25.34254 53 ft 33 kts 306°
2026-04-23 20:02 64.93495 25.34091 59 ft 22 kts 29°
2026-04-23 20:02 64.93480 25.34388 56 ft 21 kts 121°
2026-04-23 20:02 64.93402 25.34690 54 ft 23 kts 123°
2026-04-23 20:03 64.93319 25.35018 54 ft 24 kts 121°
2026-04-23 20:03 64.93229 25.35369 54 ft 26 kts 121°
2026-04-23 20:03 64.93134 25.35745 53 ft 27 kts 121°
2026-04-23 20:03 64.93033 25.36144 51 ft 29 kts 121°
2026-04-23 20:04 64.92927 25.36560 52 ft 30 kts 121°
2026-04-23 20:04 64.92816 25.36997 49 ft 32 kts 121°
2026-04-23 20:04 64.92765 25.37300 50 ft 12 kts 56°
2026-04-23 20:04 64.92807 25.37364 50 ft 0 kts 31°